Time,TemperatureF,DewpointF,PressureIn,WindDirection,WindDirectionDegrees,WindSpeedMPH,WindSpeedGustMPH,Humidity,HourlyPrecipIn,Conditions,Clouds,dailyrainin,SoftwareType,DateUTC
2013-05-14 07:44:00,39.2,32.9,28.97,West,260,0.0,0.0,78,0.00,,CLR,0.00,VWS V14.01,2013-05-14 11:44:00,
2013-05-14 07:45:00,39.2,32.6,28.97,West,260,0.0,0.0,77,0.00,,CLR,0.00,VWS V14.01,2013-05-14 11:45:00,
2013-05-14 07:46:00,39.2,32.6,28.97,West,260,0.0,0.0,77,0.00,,CLR,0.00,VWS V14.01,2013-05-14 11:46:00,
2013-05-14 07:51:00,39.7,30.8,28.97,West,260,0.0,0.0,70,0.00,,CLR,0.00,VWS V14.01,2013-05-14 11:51:00,
2013-05-14 07:56:00,40.6,30.5,28.97,West,260,0.0,0.0,67,0.00,,CLR,0.00,VWS V14.01,2013-05-14 11:56:00,
2013-05-14 08:01:00,41.5,29.5,28.97,West,260,0.0,0.0,62,0.00,,CLR,0.00,VWS V14.01,2013-05-14 12:01:00,
2013-05-14 08:06:00,42.6,29.3,28.97,West,260,0.0,0.0,59,0.00,,CLR,0.00,VWS V14.01,2013-05-14 12:06:00,
2013-05-14 08:11:00,43.3,27.4,28.97,West,260,0.0,0.0,53,0.00,,CLR,0.00,VWS V14.01,2013-05-14 12:11:00,
2013-05-14 08:16:00,44.2,27.7,28.97,West,260,0.0,0.0,52,0.00,,CLR,0.00,VWS V14.01,2013-05-14 12:16:00,
2013-05-14 08:21:00,44.8,27.3,28.97,West,260,0.0,0.0,50,0.00,,CLR,0.00,VWS V14.01,2013-05-14 12:21:00,
2013-05-14 08:26:00,44.8,27.3,28.97,West,260,0.0,0.0,50,0.00,,CLR,0.00,VWS V14.01,2013-05-14 12:26:00,
2013-05-14 08:31:00,45.7,26.6,28.97,WNW,289,0.0,0.0,47,0.00,,CLR,0.00,VWS V14.01,2013-05-14 12:31:00,
2013-05-14 08:36:00,46.4,27.3,28.97,WNW,289,0.0,0.0,47,0.00,,CLR,0.00,VWS V14.01,2013-05-14 12:36:00,
2013-05-14 08:41:00,47.3,27.6,28.97,WNW,289,0.0,0.0,46,0.00,,CLR,0.00,VWS V14.01,2013-05-14 12:41:00,
2013-05-14 08:46:00,48.4,25.2,28.97,East,89,0.0,0.0,40,0.00,,CLR,0.00,VWS V14.01,2013-05-14 12:46:00,
2013-05-14 08:51:00,48.0,25.5,28.97,South,180,0.0,0.0,41,0.00,,CLR,0.00,VWS V14.01,2013-05-14 12:51:00,
2013-05-14 08:56:00,49.3,26.6,28.97,SE,130,0.0,0.0,41,0.00,,CLR,0.00,VWS V14.01,2013-05-14 12:56:00,
2013-05-14 09:01:00,50.0,25.4,28.97,East,84,0.0,0.0,38,0.00,,CLR,0.00,VWS V14.01,2013-05-14 13:01:00,
2013-05-14 09:07:00,50.0,26.0,28.97,East,80,0.0,0.0,39,0.00,,CLR,0.00,VWS V14.01,2013-05-14 13:07:00,
2013-05-14 09:12:00,49.8,25.9,28.97,South,175,0.0,0.0,39,0.00,,CLR,0.00,VWS V14.01,2013-05-14 13:12:00,
2013-05-14 09:17:00,51.1,25.7,28.97,East,88,0.0,0.0,37,0.00,,CLR,0.00,VWS V14.01,2013-05-14 13:17:00,
2013-05-14 09:22:00,52.2,26.7,28.97,East,89,0.0,0.0,37,0.00,,CLR,0.00,VWS V14.01,2013-05-14 13:22:00,
2013-05-14 09:27:00,51.8,27.0,28.97,East,86,3.1,3.1,38,0.00,,CLR,0.00,VWS V14.01,2013-05-14 13:27:00,
2013-05-14 09:32:00,53.1,26.8,28.97,NNE,29,3.1,3.1,36,0.00,,CLR,0.00,VWS V14.01,2013-05-14 13:32:00,
2013-05-14 09:37:00,53.2,25.6,28.97,NNE,20,2.7,2.7,34,0.00,,CLR,0.00,VWS V14.01,2013-05-14 13:37:00,
2013-05-14 09:42:00,53.6,25.9,28.97,NNE,32,3.1,3.1,34,0.00,,CLR,0.00,VWS V14.01,2013-05-14 13:42:00,
2013-05-14 09:47:00,53.8,26.8,28.97,ESE,104,2.2,2.7,35,0.00,,CLR,0.00,VWS V14.01,2013-05-14 13:47:00,
2013-05-14 09:52:00,55.0,27.2,28.97,NNW,329,0.0,2.7,34,0.00,,CLR,0.00,VWS V14.01,2013-05-14 13:52:00,
2013-05-14 09:57:00,55.2,25.9,28.97,North,357,0.0,0.0,32,0.00,,CLR,0.00,VWS V14.01,2013-05-14 13:57:00,
2013-05-14 10:03:00,56.1,25.1,28.97,NE,37,0.0,2.7,30,0.00,,CLR,0.00,VWS V14.01,2013-05-14 14:03:00,
2013-05-14 10:08:00,56.7,25.6,28.94,ESE,120,2.7,2.7,30,0.00,,CLR,0.00,VWS V14.01,2013-05-14 14:08:00,
2013-05-14 10:13:00,57.9,26.7,28.94,East,84,3.6,3.6,30,0.00,,CLR,0.00,VWS V14.01,2013-05-14 14:13:00,
2013-05-14 10:18:00,58.6,25.6,28.94,East,80,0.0,0.0,28,0.00,,CLR,0.00,VWS V14.01,2013-05-14 14:18:00,
2013-05-14 10:23:00,59.2,26.1,28.94,East,90,2.2,2.7,28,0.00,,CLR,0.00,VWS V14.01,2013-05-14 14:23:00,
2013-05-14 10:28:00,59.5,26.4,28.94,East,85,3.6,3.6,28,0.00,,CLR,0.00,VWS V14.01,2013-05-14 14:28:00,
2013-05-14 10:33:00,60.1,26.0,28.94,SE,145,3.1,3.1,27,0.00,,CLR,0.00,VWS V14.01,2013-05-14 14:33:00,
2013-05-14 10:38:00,60.8,25.7,28.94,East,96,0.0,2.7,26,0.00,,CLR,0.00,VWS V14.01,2013-05-14 14:38:00,
2013-05-14 10:43:00,60.6,24.6,28.94,South,187,2.7,3.6,25,0.00,,CLR,0.00,VWS V14.01,2013-05-14 14:43:00,
2013-05-14 10:48:00,61.0,25.9,28.94,SSW,210,3.6,3.6,26,0.00,,CLR,0.00,VWS V14.01,2013-05-14 14:48:00,
2013-05-14 10:53:00,61.5,25.4,28.94,South,189,0.0,2.2,25,0.00,,CLR,0.00,VWS V14.01,2013-05-14 14:53:00,
2013-05-14 10:58:00,62.4,25.2,28.94,NE,36,2.2,2.2,24,0.00,,CLR,0.00,VWS V14.01,2013-05-14 14:58:00,
2013-05-14 11:03:00,63.1,24.8,28.94,WNW,293,2.7,3.6,23,0.00,,CLR,0.00,VWS V14.01,2013-05-14 15:03:00,
2013-05-14 11:08:00,64.0,25.5,28.94,WSW,244,2.7,4.0,23,0.00,,CLR,0.00,VWS V14.01,2013-05-14 15:08:00,
2013-05-14 11:13:00,64.0,25.5,28.94,West,275,3.6,3.6,23,0.00,,CLR,0.00,VWS V14.01,2013-05-14 15:13:00,
2013-05-14 11:19:00,62.6,22.1,28.94,WSW,250,3.1,3.1,21,0.00,,CLR,0.00,VWS V14.01,2013-05-14 15:19:00,
2013-05-14 11:24:00,63.0,22.5,28.94,SSW,203,3.6,3.6,21,0.00,,CLR,0.00,VWS V14.01,2013-05-14 15:24:00,
2013-05-14 11:28:00,62.6,24.3,28.94,SSW,193,5.4,5.4,23,0.00,,CLR,0.00,VWS V14.01,2013-05-14 15:28:00,
2013-05-14 11:34:00,63.7,26.2,28.94,WNW,285,4.0,4.0,24,0.00,,CLR,0.00,VWS V14.01,2013-05-14 15:34:00,
2013-05-14 11:39:00,63.5,25.1,28.91,SW,233,2.7,2.7,23,0.00,,CLR,0.00,VWS V14.01,2013-05-14 15:39:00,
2013-05-14 11:44:00,63.9,25.4,28.91,WNW,292,5.4,5.4,23,0.00,,CLR,0.00,VWS V14.01,2013-05-14 15:44:00,
2013-05-14 11:49:00,63.1,24.8,28.91,SW,216,2.7,2.7,23,0.00,,CLR,0.00,VWS V14.01,2013-05-14 15:49:00,
2013-05-14 11:54:00,61.7,21.4,28.91,West,259,3.1,4.9,21,0.00,,CLR,0.00,VWS V14.01,2013-05-14 15:54:00,
2013-05-14 11:59:00,62.2,25.0,28.91,SW,215,3.1,4.0,24,0.00,,CLR,0.00,VWS V14.01,2013-05-14 15:59:00,
2013-05-14 12:04:00,62.4,25.2,28.91,SSW,210,2.7,3.1,24,0.00,,CLR,0.00,VWS V14.01,2013-05-14 16:04:00,
2013-05-14 12:09:00,63.0,22.5,28.91,WSW,247,2.2,5.8,21,0.00,,CLR,0.00,VWS V14.01,2013-05-14 16:09:00,
2013-05-14 12:14:00,63.5,22.9,28.91,WSW,244,5.4,5.4,21,0.00,,CLR,0.00,VWS V14.01,2013-05-14 16:14:00,
2013-05-14 12:19:00,62.6,22.1,28.91,SW,215,8.1,8.1,21,0.00,,CLR,0.00,VWS V14.01,2013-05-14 16:19:00,
2013-05-14 12:24:00,62.6,22.1,28.91,NW,315,0.0,0.0,21,0.00,,CLR,0.00,VWS V14.01,2013-05-14 16:24:00,
2013-05-14 12:30:00,63.0,22.5,28.91,SSW,210,4.0,5.4,21,0.00,,CLR,0.00,VWS V14.01,2013-05-14 16:30:00,
2013-05-14 12:35:00,63.3,22.8,28.91,WSW,253,5.8,5.8,21,0.00,,CLR,0.00,VWS V14.01,2013-05-14 16:35:00,
2013-05-14 12:40:00,64.4,22.5,28.91,SW,231,4.0,7.6,20,0.00,,CLR,0.00,VWS V14.01,2013-05-14 16:40:00,
2013-05-14 12:45:00,65.7,26.9,28.91,WSW,239,3.6,3.6,23,0.00,,CLR,0.00,VWS V14.01,2013-05-14 16:45:00,
2013-05-14 12:50:00,66.4,26.4,28.91,West,261,3.6,3.6,22,0.00,,CLR,0.00,VWS V14.01,2013-05-14 16:50:00,
2013-05-14 12:55:00,65.5,20.9,28.88,SSW,205,3.6,8.7,18,0.00,,CLR,0.00,VWS V14.01,2013-05-14 16:55:00,
2013-05-14 13:00:00,64.8,20.3,28.88,WSW,247,5.4,8.7,18,0.00,,CLR,0.00,VWS V14.01,2013-05-14 17:00:00,
2013-05-14 13:05:00,65.1,20.6,28.88,SW,222,5.8,5.8,18,0.00,,CLR,0.00,VWS V14.01,2013-05-14 17:05:00,
2013-05-14 13:10:00,66.7,24.4,28.88,West,272,7.6,7.6,20,0.00,,CLR,0.00,VWS V14.01,2013-05-14 17:10:00,
2013-05-14 13:15:00,67.5,21.2,28.88,NW,323,2.7,4.9,17,0.00,,CLR,0.00,VWS V14.01,2013-05-14 17:15:00,
2013-05-14 13:20:00,67.1,24.7,28.88,SW,230,4.9,4.9,20,0.00,,CLR,0.00,VWS V14.01,2013-05-14 17:20:00,
2013-05-14 13:25:00,68.0,25.5,28.88,SW,234,5.4,5.4,20,0.00,,CLR,0.00,VWS V14.01,2013-05-14 17:25:00,
2013-05-14 13:30:00,68.0,21.6,28.88,SW,226,4.0,4.5,17,0.00,,CLR,0.00,VWS V14.01,2013-05-14 17:30:00,
2013-05-14 13:36:00,68.2,21.7,28.88,WSW,247,3.6,5.4,17,0.00,,CLR,0.00,VWS V14.01,2013-05-14 17:36:00,
2013-05-14 13:41:00,67.8,21.5,28.88,SSW,196,0.0,4.0,17,0.00,,CLR,0.00,VWS V14.01,2013-05-14 17:41:00,
2013-05-14 13:46:00,66.9,20.7,28.88,SSW,193,4.0,6.7,17,0.00,,CLR,0.00,VWS V14.01,2013-05-14 17:46:00,
2013-05-14 13:51:00,66.6,20.4,28.88,SSW,204,2.2,4.0,17,0.00,,CLR,0.00,VWS V14.01,2013-05-14 17:51:00,
2013-05-14 13:56:00,66.6,20.4,28.85,SW,229,3.6,4.0,17,0.00,,CLR,0.00,VWS V14.01,2013-05-14 17:56:00,
2013-05-14 14:01:00,66.9,20.7,28.85,SW,217,3.6,3.6,17,0.00,,CLR,0.00,VWS V14.01,2013-05-14 18:01:00,
2013-05-14 14:06:00,67.1,20.9,28.85,SSW,211,2.7,5.8,17,0.00,,FEW100,0.00,VWS V14.01,2013-05-14 18:06:00,
2013-05-14 14:11:00,66.9,20.7,28.85,WNW,287,2.7,5.4,17,0.00,,FEW100,0.00,VWS V14.01,2013-05-14 18:11:00,
2013-05-14 14:16:00,68.0,21.6,28.85,SW,226,2.2,4.9,17,0.00,,FEW100,0.00,VWS V14.01,2013-05-14 18:16:00,
2013-05-14 14:20:00,68.0,21.6,28.85,NNW,342,0.0,0.0,17,0.00,,FEW100,0.00,VWS V14.01,2013-05-14 18:20:00,
2013-05-14 14:26:00,68.0,21.6,28.85,NW,317,0.0,0.0,17,0.00,,FEW100,0.00,VWS V14.01,2013-05-14 18:26:00,
2013-05-14 14:31:00,67.5,25.0,28.85,West,274,0.0,0.0,20,0.00,,FEW100,0.00,VWS V14.01,2013-05-14 18:31:00,
2013-05-14 14:35:00,66.9,20.7,28.85,WSW,237,3.6,3.6,17,0.00,,FEW100,0.00,VWS V14.01,2013-05-14 18:35:00,
2013-05-14 14:41:00,66.4,20.3,28.85,SSW,213,4.5,6.3,17,0.00,,FEW100,0.00,VWS V14.01,2013-05-14 18:41:00,
2013-05-14 14:46:00,66.4,20.3,28.85,SW,218,4.9,6.3,17,0.00,,FEW100,0.00,VWS V14.01,2013-05-14 18:46:00,
2013-05-14 14:51:00,66.2,20.1,28.85,WSW,257,3.1,5.4,17,0.00,,FEW100,0.00,VWS V14.01,2013-05-14 18:51:00,
2013-05-14 14:56:00,66.6,20.4,28.85,SW,220,3.6,5.4,17,0.00,,FEW100,0.00,VWS V14.01,2013-05-14 18:56:00,
2013-05-14 15:01:00,66.6,20.4,28.85,South,179,5.4,6.3,17,0.00,,FEW100,0.00,VWS V14.01,2013-05-14 19:01:00,
2013-05-14 15:05:00,66.7,20.6,28.85,WSW,245,4.0,4.9,17,0.00,,BKN100,0.00,VWS V14.01,2013-05-14 19:05:00,
2013-05-14 15:11:00,66.7,20.6,28.85,WSW,251,4.0,6.3,17,0.00,,BKN100,0.00,VWS V14.01,2013-05-14 19:11:00,
2013-05-14 15:16:00,66.6,20.4,28.85,SSW,203,3.6,6.3,17,0.00,,BKN100,0.00,VWS V14.01,2013-05-14 19:16:00,
2013-05-14 15:21:00,66.4,20.3,28.85,SW,219,5.8,8.1,17,0.00,,BKN100,0.00,VWS V14.01,2013-05-14 19:21:00,
2013-05-14 15:26:00,66.4,20.3,28.82,SSW,208,4.0,6.3,17,0.00,,BKN100,0.00,VWS V14.01,2013-05-14 19:26:00,
2013-05-14 15:31:00,66.4,20.3,28.82,WSW,243,4.9,6.7,17,0.00,,BKN100,0.00,VWS V14.01,2013-05-14 19:31:00,
2013-05-14 15:36:00,66.4,20.3,28.82,South,187,3.6,5.8,17,0.00,,BKN100,0.00,VWS V14.01,2013-05-14 19:36:00,
2013-05-14 15:41:00,66.4,20.3,28.82,SW,219,4.9,6.3,17,0.00,,BKN100,0.00,VWS V14.01,2013-05-14 19:41:00,
2013-05-14 15:46:00,66.2,20.1,28.82,SSW,194,3.6,5.4,17,0.00,,BKN100,0.00,VWS V14.01,2013-05-14 19:46:00,
2013-05-14 15:51:00,66.2,20.1,28.82,SSE,162,3.6,4.9,17,0.00,,BKN100,0.00,VWS V14.01,2013-05-14 19:51:00,
2013-05-14 15:56:00,66.2,20.1,28.82,South,184,3.6,3.6,17,0.00,,BKN100,0.00,VWS V14.01,2013-05-14 19:56:00,
2013-05-14 16:01:00,66.4,20.3,28.82,South,176,3.6,3.6,17,0.00,,BKN100,0.00,VWS V14.01,2013-05-14 20:01:00,
2013-05-14 16:06:00,66.6,20.4,28.82,SW,224,2.2,2.2,17,0.00,,SCT110,0.00,VWS V14.01,2013-05-14 20:06:00,
2013-05-14 16:11:00,66.6,20.4,28.82,WSW,238,0.0,0.0,17,0.00,,SCT110,0.00,VWS V14.01,2013-05-14 20:11:00,
2013-05-14 16:16:00,66.7,20.6,28.82,SW,223,2.7,2.7,17,0.00,,SCT110,0.00,VWS V14.01,2013-05-14 20:16:00,
2013-05-14 16:21:00,67.1,24.7,28.82,SSW,213,2.2,2.2,20,0.00,,SCT110,0.00,VWS V14.01,2013-05-14 20:21:00,
2013-05-14 16:26:00,67.1,20.9,28.82,SSW,205,2.7,2.7,17,0.00,,SCT110,0.00,VWS V14.01,2013-05-14 20:26:00,
2013-05-14 16:31:00,67.1,24.7,28.82,South,191,0.0,5.4,20,0.00,,SCT110,0.00,VWS V14.01,2013-05-14 20:31:00,
2013-05-14 16:37:00,66.6,20.4,28.82,NE,43,2.7,2.7,17,0.00,,SCT110,0.00,VWS V14.01,2013-05-14 20:37:00,
2013-05-14 16:42:00,66.2,24.0,28.82,SW,216,0.0,3.6,20,0.00,,SCT110,0.00,VWS V14.01,2013-05-14 20:42:00,
2013-05-14 16:47:00,66.2,24.0,28.82,East,88,0.0,0.0,20,0.00,,SCT110,0.00,VWS V14.01,2013-05-14 20:47:00,
2013-05-14 16:52:00,66.4,24.1,28.82,SSE,158,0.0,0.0,20,0.00,,SCT110,0.00,VWS V14.01,2013-05-14 20:52:00,
2013-05-14 16:57:00,66.7,24.4,28.82,SSE,155,2.7,2.7,20,0.00,,SCT110,0.00,VWS V14.01,2013-05-14 20:57:00,
2013-05-14 17:02:00,67.1,27.0,28.82,East,93,2.7,2.7,22,0.00,,BKN100,0.00,VWS V14.01,2013-05-14 21:02:00,
2013-05-14 17:07:00,67.1,27.0,28.79,SSW,211,3.6,8.1,22,0.00,,BKN100,0.00,VWS V14.01,2013-05-14 21:07:00,
2013-05-14 17:12:00,67.1,28.1,28.79,SSW,208,0.0,2.2,23,0.00,,BKN100,0.00,VWS V14.01,2013-05-14 21:12:00,
2013-05-14 17:17:00,66.7,26.7,28.79,SSW,205,3.1,3.1,22,0.00,,BKN100,0.00,VWS V14.01,2013-05-14 21:17:00,
2013-05-14 17:22:00,66.4,27.5,28.79,East,83,4.0,5.4,23,0.00,,BKN100,0.00,VWS V14.01,2013-05-14 21:22:00,
2013-05-14 17:27:00,66.2,26.3,28.79,SSE,153,4.9,4.9,22,0.00,,BKN100,0.00,VWS V14.01,2013-05-14 21:27:00,
2013-05-14 17:32:00,66.6,26.6,28.79,SW,227,4.0,4.0,22,0.00,,BKN100,0.00,VWS V14.01,2013-05-14 21:32:00,
2013-05-14 17:37:00,67.1,27.0,28.79,South,186,0.0,0.0,22,0.00,,BKN100,0.00,VWS V14.01,2013-05-14 21:37:00,
2013-05-14 17:42:00,67.3,27.2,28.79,WSW,258,5.4,5.4,22,0.00,,BKN100,0.00,VWS V14.01,2013-05-14 21:42:00,
2013-05-14 17:47:00,67.3,27.2,28.79,SSW,210,3.1,3.6,22,0.00,,BKN100,0.00,VWS V14.01,2013-05-14 21:47:00,
2013-05-14 17:52:00,67.1,27.0,28.79,ESE,123,0.0,0.0,22,0.00,,BKN100,0.00,VWS V14.01,2013-05-14 21:52:00,
2013-05-14 17:57:00,67.1,27.0,28.79,SSW,195,0.0,2.2,22,0.00,,BKN100,0.00,VWS V14.01,2013-05-14 21:57:00,
2013-05-14 18:02:00,67.1,28.1,28.79,SSE,158,0.0,5.8,23,0.00,,FEW100,0.00,VWS V14.01,2013-05-14 22:02:00,
2013-05-14 18:07:00,67.3,27.2,28.79,SW,215,0.0,2.2,22,0.00,,FEW100,0.00,VWS V14.01,2013-05-14 22:07:00,
2013-05-14 18:12:00,67.3,28.2,28.79,ENE,68,4.0,4.0,23,0.00,,FEW100,0.00,VWS V14.01,2013-05-14 22:12:00,
2013-05-14 18:18:00,67.3,28.2,28.79,ESE,123,0.0,0.0,23,0.00,,FEW100,0.00,VWS V14.01,2013-05-14 22:18:00,
2013-05-14 18:23:00,67.1,28.1,28.79,SSE,155,0.0,4.0,23,0.00,,FEW100,0.00,VWS V14.01,2013-05-14 22:23:00,
2013-05-14 18:28:00,67.1,28.1,28.79,East,99,2.7,2.7,23,0.00,,FEW100,0.00,VWS V14.01,2013-05-14 22:28:00,
2013-05-14 18:33:00,67.3,28.2,28.79,SSW,208,3.6,3.6,23,0.00,,FEW100,0.00,VWS V14.01,2013-05-14 22:33:00,
2013-05-14 18:38:00,67.1,28.1,28.79,South,184,2.2,2.2,23,0.00,,FEW100,0.00,VWS V14.01,2013-05-14 22:38:00,
2013-05-14 18:43:00,66.9,27.9,28.79,SSW,210,0.0,3.1,23,0.00,,FEW100,0.00,VWS V14.01,2013-05-14 22:43:00,
2013-05-14 18:48:00,66.7,27.8,28.79,WNW,286,3.1,3.1,23,0.00,,FEW100,0.00,VWS V14.01,2013-05-14 22:48:00,
2013-05-14 18:53:00,66.6,27.6,28.79,ENE,77,3.1,3.1,23,0.00,,FEW100,0.00,VWS V14.01,2013-05-14 22:53:00,
2013-05-14 19:01:00,66.7,27.8,28.79,SSE,154,0.0,0.0,23,0.00,,FEW100,0.00,VWS V14.01,2013-05-14 23:01:00,
2013-05-14 19:06:00,66.9,27.9,28.76,WSW,246,0.0,0.0,23,0.00,,CLR,0.00,VWS V14.01,2013-05-14 23:06:00,
2013-05-14 19:11:00,67.1,28.1,28.76,SW,214,0.0,4.0,23,0.00,,CLR,0.00,VWS V14.01,2013-05-14 23:11:00,
2013-05-14 19:16:00,67.1,28.1,28.76,NE,51,4.0,4.0,23,0.00,,CLR,0.00,VWS V14.01,2013-05-14 23:16:00,
2013-05-14 19:22:00,66.9,27.9,28.76,SE,140,0.0,2.2,23,0.00,,CLR,0.00,VWS V14.01,2013-05-14 23:22:00,
2013-05-14 19:27:00,66.9,27.9,28.76,SE,144,5.8,5.8,23,0.00,,CLR,0.00,VWS V14.01,2013-05-14 23:27:00,
2013-05-14 19:32:00,66.9,27.9,28.76,SE,132,5.8,5.8,23,0.00,,CLR,0.00,VWS V14.01,2013-05-14 23:32:00,
2013-05-14 19:37:00,66.9,27.9,28.76,SSW,209,2.7,3.1,23,0.00,,CLR,0.00,VWS V14.01,2013-05-14 23:37:00,
2013-05-14 19:42:00,66.6,27.6,28.76,SSW,210,5.4,6.3,23,0.00,,CLR,0.00,VWS V14.01,2013-05-14 23:42:00,
2013-05-14 19:47:00,66.6,27.6,28.76,SE,131,2.7,3.1,23,0.00,,CLR,0.00,VWS V14.01,2013-05-14 23:47:00,
2013-05-14 19:52:00,66.4,27.5,28.76,SE,138,0.0,4.0,23,0.00,,CLR,0.00,VWS V14.01,2013-05-14 23:52:00,
2013-05-14 19:57:00,66.0,27.2,28.76,SSW,210,2.2,5.4,23,0.00,,CLR,0.00,VWS V14.01,2013-05-14 23:57:00,
2013-05-14 20:02:00,66.2,27.3,28.76,SW,226,4.0,6.3,23,0.00,,CLR,0.00,VWS V14.01,2013-05-15 00:02:00,
2013-05-14 20:07:00,65.8,28.1,28.76,SSW,192,3.1,4.0,24,0.00,,CLR,0.00,VWS V14.01,2013-05-15 00:07:00,
2013-05-14 20:12:00,65.7,26.9,28.76,SW,216,0.0,2.7,23,0.00,,CLR,0.00,VWS V14.01,2013-05-15 00:12:00,
2013-05-14 20:17:00,65.5,26.7,28.76,South,186,3.1,3.6,23,0.00,,CLR,0.00,VWS V14.01,2013-05-15 00:17:00,
2013-05-14 20:22:00,65.3,27.6,28.76,SW,219,0.0,0.0,24,0.00,,CLR,0.00,VWS V14.01,2013-05-15 00:22:00,
2013-05-14 20:27:00,65.3,27.6,28.76,SSW,206,2.7,2.7,24,0.00,,CLR,0.00,VWS V14.01,2013-05-15 00:27:00,
2013-05-14 20:32:00,64.9,27.3,28.76,SW,218,0.0,0.0,24,0.00,,CLR,0.00,VWS V14.01,2013-05-15 00:32:00,
2013-05-14 20:37:00,64.8,27.2,28.76,SSW,211,3.6,3.6,24,0.00,,CLR,0.00,VWS V14.01,2013-05-15 00:37:00,
2013-05-14 20:42:00,64.4,26.9,28.76,South,188,2.2,3.6,24,0.00,,CLR,0.00,VWS V14.01,2013-05-15 00:42:00,
2013-05-14 20:47:00,63.9,27.4,28.76,South,188,0.0,0.0,25,0.00,,CLR,0.00,VWS V14.01,2013-05-15 00:47:00,
2013-05-14 20:52:00,63.1,26.8,28.76,South,188,0.0,0.0,25,0.00,,CLR,0.00,VWS V14.01,2013-05-15 00:52:00,
2013-05-14 20:57:00,62.6,26.3,28.76,SSW,207,0.0,0.0,25,0.00,,CLR,0.00,VWS V14.01,2013-05-15 00:57:00,
2013-05-14 21:02:00,62.2,27.0,28.76,SW,222,2.7,2.7,26,0.00,,CLR,0.00,VWS V14.01,2013-05-15 01:02:00,
2013-05-14 21:07:00,61.9,27.6,28.76,South,178,0.0,2.2,27,0.00,,CLR,0.00,VWS V14.01,2013-05-15 01:07:00,
2013-05-14 21:12:00,61.5,29.0,28.76,SW,222,0.0,0.0,29,0.00,,CLR,0.00,VWS V14.01,2013-05-15 01:12:00,
2013-05-14 21:17:00,60.8,30.0,28.76,SW,222,0.0,0.0,31,0.00,,CLR,0.00,VWS V14.01,2013-05-15 01:17:00,
2013-05-14 21:22:00,60.1,31.6,28.76,SW,222,0.0,0.0,34,0.00,,CLR,0.00,VWS V14.01,2013-05-15 01:22:00,
2013-05-14 21:27:00,59.7,31.3,28.76,SW,222,0.0,0.0,34,0.00,,CLR,0.00,VWS V14.01,2013-05-15 01:27:00,
2013-05-14 21:32:00,59.4,31.7,28.76,SW,222,0.0,0.0,35,0.00,,CLR,0.00,VWS V14.01,2013-05-15 01:32:00,
2013-05-14 21:37:00,58.6,31.1,28.76,SW,222,0.0,0.0,35,0.00,,CLR,0.00,VWS V14.01,2013-05-15 01:37:00,
2013-05-14 21:42:00,58.3,31.5,28.76,SW,222,0.0,0.0,36,0.00,,CLR,0.00,VWS V14.01,2013-05-15 01:42:00,
2013-05-14 21:47:00,57.9,31.1,28.76,SW,222,0.0,0.0,36,0.00,,CLR,0.00,VWS V14.01,2013-05-15 01:47:00,
2013-05-14 21:52:00,57.4,31.3,28.76,SW,222,0.0,0.0,37,0.00,,CLR,0.00,VWS V14.01,2013-05-15 01:52:00,
2013-05-14 21:57:00,57.2,32.5,28.76,SSW,199,2.7,3.1,39,0.00,,CLR,0.00,VWS V14.01,2013-05-15 01:57:00,
2013-05-14 22:02:00,56.8,32.8,28.76,South,191,0.0,0.0,40,0.00,,CLR,0.00,VWS V14.01,2013-05-15 02:02:00,
2013-05-14 22:07:00,56.7,32.6,28.76,South,184,3.6,3.6,40,0.00,,CLR,0.00,VWS V14.01,2013-05-15 02:07:00,
2013-05-14 22:12:00,56.5,33.1,28.76,SW,215,2.7,2.7,41,0.00,,CLR,0.00,VWS V14.01,2013-05-15 02:12:00,
2013-05-14 22:17:00,57.4,32.7,28.76,SSW,212,2.2,4.0,39,0.00,,CLR,0.00,VWS V14.01,2013-05-15 02:17:00,
2013-05-14 22:22:00,58.8,32.0,28.76,SW,216,3.1,3.1,36,0.00,,CLR,0.00,VWS V14.01,2013-05-15 02:22:00,
2013-05-14 22:27:00,58.8,32.0,28.76,SW,215,2.7,3.6,36,0.00,,CLR,0.00,VWS V14.01,2013-05-15 02:27:00,
2013-05-14 22:32:00,58.8,32.6,28.76,SSW,194,0.0,3.1,37,0.00,,CLR,0.00,VWS V14.01,2013-05-15 02:32:00,
2013-05-14 22:37:00,60.3,32.5,28.76,SSW,199,0.0,2.7,35,0.00,,CLR,0.00,VWS V14.01,2013-05-15 02:37:00,
2013-05-14 22:42:00,59.9,32.2,28.76,SSW,197,0.0,0.0,35,0.00,,CLR,0.00,VWS V14.01,2013-05-15 02:42:00,
2013-05-14 22:47:00,59.2,31.6,28.76,SSW,197,0.0,0.0,35,0.00,,CLR,0.00,VWS V14.01,2013-05-15 02:47:00,
2013-05-14 22:52:00,58.5,32.3,28.76,SSW,197,0.0,0.0,37,0.00,,CLR,0.00,VWS V14.01,2013-05-15 02:52:00,
2013-05-14 22:57:00,57.9,32.5,28.76,SSW,197,0.0,0.0,38,0.00,,CLR,0.00,VWS V14.01,2013-05-15 02:57:00,
2013-05-14 23:02:00,57.0,32.3,28.76,SSW,197,0.0,0.0,39,0.00,,BKN100,0.00,VWS V14.01,2013-05-15 03:02:00,
2013-05-14 23:07:00,56.7,32.6,28.76,SSW,197,0.0,0.0,40,0.00,,BKN100,0.00,VWS V14.01,2013-05-15 03:07:00,